Location: Oak Glen
(34.0495°N, 116.9470°E)
Time: 07:48:51
(UTC-08:00)

Envisat - Pass Details

Date: 16 October 2017
Orbit: 764 x 766 km, 98.2° (Epoch: 17 December)

Event Time Altitude Azimuth Distance (km) Brightness Sun altitude
Exits shadow 06:04:47 11° 318° (NW) 2,252 5.9 -43.2°
Drops below altitude 10° 06:04:53 10° 319° (NW) 2,285 6.0 -43.2°
Sets 06:07:39 0° 333° (NNW) 3,235 6.8 -43.7°
